Regional Weather Roundup
Issued by NWS Little Rock, AR

Home | Current Version | Previous Version | Text Only | Print | Product List | Glossary Off
Versions: 1 2 3 4 5 6 7 8 9 10 11 12 13 14 15 16 17 18 19 20 21 22 23 24 25 26 27 28 29 30 31 32 33 34 35 36 37 38 39 40 41 42 43 44 45 46 47 48 49 50

000
ASUS44 KLZK 271605
RWRLZK

WEATHER ROUNDUP FOR ARKANSAS
NATIONAL WEATHER SERVICE LITTLE ROCK AR
1100 AM CDT WED AUG 27 2014

NOTE: "FAIR" INDICATES FEW OR NO CLOUDS BELOW 12,000 FEET WITH NO
SIGNIFICANT WEATHER AND/OR OBSTRUCTIONS TO VISIBILITY.

ARZ001-003-010-029-271700-
NORTHWEST ARKANSAS

CITY           SKY/WX    TMP DP  RH WIND       PRES   REMARKS
FAYETTEVILLE   MOSUNNY   87  69  54 NW3       30.15S HX  91
FORT SMITH     SUNNY     88  70  55 W3        30.11R HX  93
HARRISON       SUNNY     86  69  56 CALM      30.16R HX  90
BENTONVILLE    MOSUNNY   86  68  54 W3        30.17S HX  89
ROGERS         MOSUNNY   86  68  54 VRB6      30.17S HX  89
SILOAM SPGS    SUNNY     84  68  58 NW7       30.17R HX  87
HIGHFILL       MOSUNNY   86  68  54 W6        30.16R HX  89
SPRINGDALE     SUNNY     86  72  62 W5        30.18R HX  92
$$

ARZ004-005-016-271700-
NORTH CENTRAL ARKANSAS

CITY           SKY/WX    TMP DP  RH WIND       PRES   REMARKS
BATESVILLE     SUNNY     90  72  55 E5        30.11R HX  96
FLIPPIN        SUNNY     90  70  51 NE5       30.13S HX  95
MTN HOME       SUNNY     87  70  56 CALM      30.12S HX  92
$$

ARZ040-041-271700-
WEST CENTRAL ARKANSAS

CITY           SKY/WX    TMP DP  RH WIND       PRES   REMARKS
MENA           SUNNY     86  68  54 CALM      30.14R HX  89
MOUNT IDA      SUNNY     85  68  56 CALM      30.11R HX  88
$$

ARZ009-017-025-026-028-271700-
NORTHEAST ARKANSAS

CITY           SKY/WX    TMP DP  RH WIND       PRES   REMARKS
CORNING        LGT RAIN  86  75  70 SE5       30.11S HX  95
JONESBORO      SUNNY     87  71  58 CALM      30.11R HX  93
NEWPORT        SUNNY     87  74  65 E5        30.12R HX  95
WALNUT RIDGE   SUNNY     86  70  58 E5        30.09S HX  90
BLYTHEVILLE    SUNNY     85  74  69 CALM      30.12R HX  92
$$

ARZ022-023-033-042-044-271700-
CENTRAL ARKANSAS

CITY           SKY/WX    TMP DP  RH WIND       PRES   REMARKS
LITTLE ROCK    PTSUNNY   88  69  53 CALM      30.10S HX  92
N LITTLE ROCK  PTSUNNY   84  73  69 NW3       30.10S HX  90
JACKSONVILLE   MOSUNNY   87  72  61 VRB2      30.10S HX  93
SEARCY         SUNNY     88  73  60 N5        30.11S HX  95
HOT SPRINGS    SUNNY     85  69  58 VRB3      30.12R HX  89
RUSSELLVILLE   SUNNY     88  75  65 CALM      30.10S HX  97
CLINTON        FAIR      90  75  62 CALM      30.11S HX 100
$$

ARZ036-271700-
EAST ARKANSAS

CITY           SKY/WX    TMP DP  RH WIND       PRES   REMARKS
WEST MEMPHIS   SUNNY     85  69  58 CALM      30.10R HX  89
$$

ARZ050-053-066-070-073-271700-
SOUTHWEST ARKANSAS

CITY           SKY/WX    TMP DP  RH WIND       PRES   REMARKS
ARKADELPHIA    FAIR      86  72  62 CALM      30.11R HX  92
CAMDEN         MOSUNNY   86  68  54 CALM      30.09S HX  89
TEXARKANA      SUNNY     87  62  43 E3        30.09S HX  87
EL DORADO      SUNNY     86  67  52 CALM      30.10R HX  89
DE QUEEN       SUNNY     86  69  56 NE5       30.08S HX  90
$$

ARZ056-057-069-271700-
SOUTHEAST ARKANSAS

CITY           SKY/WX    TMP DP  RH WIND       PRES   REMARKS
PINE BLUFF     SUNNY     86  68  54 CALM      30.10R HX  89
STUTTGART      SUNNY     84  72  65 NE5       30.12R HX  89
MONTICELLO     SUNNY     86  68  54 CALM      30.10R HX  89

$$





USA.gov is the U.S. government's official web portal to all federal, state and local government web resources and services.